Date String (YYYY-MM-DD hh:mm:ss) UTC,Instrument flags,Ambient pressure (hPa),Sample flow (lpm),Bypass flow (lpm),Sample temperature (°C),Ambient temperature (°C),ASC tube jacket temperature (°C),LED temperature (°C),Box temperature (°C),Sample RH (%),Span deviation,Mass concentration (μg/m³),Mass concentration (μg/m³),Mass concentration (μg/m³)
DateTimeUTC,F1_M11,P_M11,Q1_M11,Q2_M11,T1_M11,T2_M11,T3_M11,T4_M11,T5_M11,U1_M11,ZSPAN_M11,X0_M11,X2_M11,X1_M11
2023-01-15 18:00:00,,0809.7,5.01,0.00,22.5,21.3,00.0,31.3,24.4,14.5,0000.0,0004.15,0002.98,0002.65
2023-01-15 18:01:00,,0809.7,4.98,0.00,22.5,21.3,00.0,31.3,24.4,14.2,0000.0,0004.16,0002.97,0002.64
2023-01-15 18:02:00,,0809.7,5.02,0.00,22.5,21.3,00.0,31.3,24.4,14.4,0000.0,0004.11,0002.97,0002.62
2023-01-15 18:03:00,,0809.6,5.01,0.00,22.6,21.3,00.0,31.4,24.4,13.9,0000.0,0003.96,0002.92,0002.61
2023-01-15 18:04:00,,0809.5,5.00,0.00,22.6,21.4,00.0,31.4,24.4,14.6,0000.0,0003.95,0002.90,0002.59
2023-01-15 18:05:00,,0809.5,5.00,0.00,22.6,21.4,00.0,31.4,24.4,15.0,0000.0,0004.46,0002.86,0002.54
2023-01-15 18:06:00,,0809.5,4.99,0.00,22.6,21.4,00.0,31.4,24.4,14.9,0000.0,0004.74,0002.82,0002.48
2023-01-15 18:07:00,,0809.4,5.00,0.00,22.6,21.4,00.0,31.4,24.4,15.0,0000.0,0004.70,0002.78,0002.43
2023-01-15 18:08:00,,0809.4,4.99,0.00,22.6,21.4,00.0,31.4,24.4,14.7,0000.0,0004.69,0002.76,0002.40
2023-01-15 18:09:00,,0809.4,5.00,0.00,22.6,21.4,00.0,31.4,24.5,14.7,0000.0,0004.60,0002.72,0002.38
2023-01-15 18:10:00,,0809.4,5.00,0.00,22.6,21.4,00.0,31.4,24.5,14.9,0000.0,0005.42,0002.72,0002.37
2023-01-15 18:11:00,,0809.3,5.01,0.00,22.6,21.4,00.0,31.4,24.4,15.0,0000.0,0006.49,0002.70,0002.35
2023-01-15 18:12:00,,0809.3,5.01,0.00,22.6,21.4,00.0,31.4,24.4,14.8,0000.0,0006.46,0002.69,0002.34
2023-01-15 18:13:00,,0809.3,5.00,0.00,22.6,21.4,00.0,31.4,24.4,14.6,0000.0,0006.44,0002.69,0002.35
2023-01-15 18:14:00,,0809.3,5.00,0.00,22.6,21.4,00.0,31.4,24.5,14.3,0000.0,0006.56,0002.73,0002.35
2023-01-15 18:15:00,,0809.4,4.99,0.00,22.6,21.4,00.0,31.4,24.5,14.6,0000.0,0006.50,0002.74,0002.36
2023-01-15 18:16:00,,0809.4,4.99,0.00,22.6,21.4,00.0,31.4,24.5,14.6,0000.0,0006.19,0002.76,0002.38
2023-01-15 18:17:00,,0809.4,5.01,0.00,22.6,21.4,00.0,31.4,24.5,14.3,0000.0,0006.26,0002.78,0002.42
2023-01-15 18:18:00,,0809.4,4.99,0.00,22.6,21.4,00.0,31.4,24.5,14.5,0000.0,0006.49,0002.85,0002.47
2023-01-15 18:19:00,,0809.4,5.00,0.00,22.7,21.4,00.0,31.4,24.5,14.5,0000.0,0006.55,0002.90,0002.49
2023-01-15 18:20:00,,0809.4,5.00,0.00,22.7,21.4,00.0,31.5,24.6,14.5,0000.0,0006.52,0002.90,0002.51
2023-01-15 18:21:00,,0809.4,4.99,0.00,22.7,21.4,00.0,31.5,24.6,14.8,0000.0,0006.17,0002.89,0002.53
2023-01-15 18:22:00,,0809.4,5.00,0.00,22.7,21.4,00.0,31.5,24.5,14.6,0000.0,0004.97,0002.94,0002.56
2023-01-15 18:23:00,,0809.3,5.02,0.00,22.7,21.4,00.0,31.5,24.6,14.7,0000.0,0005.05,0002.96,0002.59
2023-01-15 18:24:00,,0809.3,5.02,0.00,22.7,21.5,00.0,31.5,24.6,14.6,0000.0,0005.18,0003.01,0002.61
2023-01-15 18:25:00,,0809.3,5.00,0.00,22.7,21.5,00.0,31.5,24.6,15.0,0000.0,0005.16,0003.02,0002.63
2023-01-15 18:26:00,,0809.3,4.99,0.00,22.7,21.5,00.0,31.5,24.6,14.8,0000.0,0005.42,0003.05,0002.65
2023-01-15 18:27:00,,0809.3,5.00,0.00,22.7,21.5,00.0,31.5,24.6,14.6,0000.0,0006.69,0003.08,0002.68
2023-01-15 18:28:00,,0809.3,5.00,0.00,22.7,21.5,00.0,31.5,24.5,14.6,0000.0,0006.41,0003.12,0002.70
2023-01-15 18:29:00,,0809.3,4.98,0.00,22.7,21.5,00.0,31.5,24.6,14.7,0000.0,0006.23,0003.12,0002.70
2023-01-15 18:30:00,,0809.3,4.99,0.00,22.7,21.5,00.0,31.5,24.6,15.0,0000.0,0006.19,0003.10,0002.72
2023-01-15 18:31:00,,0809.3,5.01,0.00,22.7,21.5,00.0,31.5,24.6,14.9,0000.0,0006.34,0003.14,0002.75
2023-01-15 18:32:00,,0809.3,5.00,0.00,22.7,21.5,00.0,31.5,24.6,15.1,0000.0,0006.79,0003.18,0002.77
2023-01-15 18:33:00,,0809.3,5.01,0.00,22.7,21.5,00.0,31.5,24.6,15.2,0000.0,0006.77,0003.20,0002.79
2023-01-15 18:34:00,,0809.3,5.00,0.00,22.7,21.5,00.0,31.5,24.6,15.2,0000.0,0006.74,0003.21,0002.80
2023-01-15 18:35:00,,0809.3,5.00,0.00,22.7,21.5,00.0,31.5,24.6,15.0,0000.0,0007.01,0003.26,0002.83
2023-01-15 18:36:00,,0809.3,5.00,0.00,22.7,21.5,00.0,31.5,24.6,14.9,0000.0,0007.48,0003.28,0002.86
2023-01-15 18:37:00,,0809.2,5.00,0.00,22.7,21.5,00.0,31.5,24.6,15.1,0000.0,0007.38,0003.28,0002.87
2023-01-15 18:38:00,,0809.2,4.99,0.00,22.8,21.5,00.0,31.6,24.6,15.0,0000.0,0006.59,0003.30,0002.90
2023-01-15 18:39:00,,0809.2,4.99,0.00,22.8,21.5,00.0,31.6,24.6,15.0,0000.0,0006.09,0003.30,0002.91
2023-01-15 18:40:00,,0809.2,5.00,0.00,22.8,21.5,00.0,31.6,24.7,15.2,0000.0,0006.31,0003.29,0002.92
2023-01-15 18:41:00,,0809.2,5.00,0.00,22.8,21.5,00.0,31.6,24.6,15.3,0000.0,0007.41,0003.31,0002.93
2023-01-15 18:42:00,,0809.1,5.01,0.00,22.8,21.5,00.0,31.6,24.6,15.4,0000.0,0007.86,0003.31,0002.94
2023-01-15 18:43:00,,0809.1,5.01,0.00,22.8,21.5,00.0,31.6,24.6,15.4,0000.0,0008.18,0003.29,0002.94
2023-01-15 18:44:00,,0809.1,5.00,0.00,22.8,21.5,00.0,31.6,24.6,15.4,0000.0,0007.98,0003.29,0002.95
2023-01-15 18:45:00,,0809.0,5.00,0.00,22.8,21.6,00.0,31.6,24.6,15.1,0000.0,0007.85,0003.27,0002.96
2023-01-15 18:46:00,,0809.0,5.01,0.00,22.8,21.6,00.0,31.6,24.6,14.8,0000.0,0007.73,0003.24,0002.96
2023-01-15 18:47:00,,0809.0,5.01,0.00,22.8,21.6,00.0,31.6,24.6,14.6,0000.0,0007.35,0003.23,0002.96
2023-01-15 18:48:00,,0809.0,5.00,0.00,22.8,21.6,00.0,31.6,24.7,14.5,0000.0,0007.54,0003.23,0002.96
2023-01-15 18:49:00,,0809.1,5.00,0.00,22.8,21.6,00.0,31.6,24.7,14.0,0000.0,0007.58,0003.21,0002.97
2023-01-15 18:50:00,,0809.1,5.00,0.00,22.8,21.6,00.0,31.6,24.7,14.1,0000.0,0007.56,0003.21,0002.97
2023-01-15 18:51:00,,0809.0,4.99,0.00,22.8,21.6,00.0,31.6,24.6,14.3,0000.0,0007.25,0003.23,0002.98
2023-01-15 18:52:00,,0809.0,4.99,0.00,22.8,21.6,00.0,31.6,24.6,13.8,0000.0,0006.27,0003.23,0003.01
2023-01-15 18:53:00,,0809.0,5.01,0.00,22.8,21.6,00.0,31.6,24.7,13.7,0000.0,0005.25,0003.21,0003.03
2023-01-15 18:54:00,,0809.0,5.00,0.00,22.8,21.6,00.0,31.6,24.7,13.6,0000.0,0004.38,0003.21,0003.06
2023-01-15 18:55:00,,0809.0,5.02,0.00,22.8,21.6,00.0,31.6,24.7,13.6,0000.0,0004.15,0003.21,0003.08
2023-01-15 18:56:00,,0808.9,5.01,0.00,22.8,21.6,00.0,31.6,24.7,13.9,0000.0,0004.20,0003.23,0003.11
2023-01-15 18:57:00,,0808.9,5.00,0.00,22.8,21.6,00.0,31.6,24.7,14.2,0000.0,0004.20,0003.23,0003.12
2023-01-15 18:58:00,,0808.9,5.00,0.00,22.8,21.6,00.0,31.6,24.7,13.7,0000.0,0004.21,0003.24,0003.13
2023-01-15 18:59:00,,0808.9,4.99,0.00,22.8,21.5,00.0,31.6,24.7,13.9,0000.0,0003.83,0003.24,0003.15
